TimeMST,TemperatureF,Dew PointF,Humidity,Sea Level PressureIn,VisibilityMPH,Wind Direction,Wind SpeedMPH,Gust SpeedMPH,PrecipitationIn,Events,Conditions,WindDirDegrees,DateUTC
12:58 AM,87.4,31.5,13,29.76,10.0,SSE,2.3,-,N/A,,Clear,150,2013-06-16 07:58:00
1:58 AM,88.5,28.2,11,29.76,10.0,SW,11.5,-,N/A,,Clear,220,2013-06-16 08:58:00
2:58 AM,87.4,26.1,11,29.78,10.0,East,3.5,-,N/A,,Clear,80,2013-06-16 09:58:00
3:58 AM,82.9,30.9,15,29.80,10.0,West,5.8,-,N/A,,Clear,260,2013-06-16 10:58:00
4:58 AM,74.8,37.9,26,29.81,10.0,North,1.2,-,N/A,,Clear,360,2013-06-16 11:58:00
5:58 AM,76.1,36.1,23,29.83,10.0,NW,2.3,-,N/A,,Clear,310,2013-06-16 12:58:00
6:58 AM,79.5,37.9,22,29.84,10.0,NNW,6.9,-,N/A,,Clear,330,2013-06-16 13:58:00
7:58 AM,85.3,37.8,18,29.85,10.0,Calm,Calm,-,N/A,,Clear,0,2013-06-16 14:58:00
8:58 AM,89.6,34.0,14,29.87,10.0,Calm,Calm,-,N/A,,Clear,0,2013-06-16 15:58:00
9:58 AM,93.9,27.5,9,29.86,10.0,SSE,2.3,-,N/A,,Clear,160,2013-06-16 16:58:00
10:58 AM,96.6,29.7,9,29.86,10.0,South,8.1,-,N/A,,Clear,180,2013-06-16 17:58:00
11:58 AM,99.5,25.7,7,29.83,10.0,Variable,4.6,-,N/A,,Clear,0,2013-06-16 18:58:00
12:58 PM,101.5,25.9,7,29.81,10.0,SW,8.1,-,N/A,,Clear,220,2013-06-16 19:58:00
1:58 PM,103.3,28.6,7,29.79,10.0,SW,10.4,-,N/A,,Clear,220,2013-06-16 20:58:00
2:58 PM,104.9,29.8,7,29.77,10.0,SW,12.7,-,N/A,,Clear,220,2013-06-16 21:58:00
3:58 PM,106.2,30.7,7,29.75,10.0,SSW,10.4,18.4,N/A,,Clear,210,2013-06-16 22:58:00
4:58 PM,105.8,30.6,7,29.74,10.0,SSW,13.8,-,N/A,,Clear,210,2013-06-16 23:58:00
5:58 PM,104.9,29.8,7,29.73,10.0,SW,11.5,-,N/A,,Clear,230,2013-06-17 00:58:00
6:58 PM,102.9,32.2,9,29.74,10.0,WSW,9.2,-,N/A,,Clear,240,2013-06-17 01:58:00
7:58 PM,97.2,35.1,11,29.74,10.0,WSW,6.9,-,N/A,,Clear,250,2013-06-17 02:58:00
8:58 PM,94.3,35.1,12,29.75,10.0,West,8.1,-,N/A,,Clear,270,2013-06-17 03:58:00
9:58 PM,92.1,35.8,14,29.77,10.0,WNW,5.8,-,N/A,,Clear,290,2013-06-17 04:58:00
10:58 PM,90.0,33.4,13,29.77,10.0,South,8.1,-,N/A,,Clear,190,2013-06-17 05:58:00
11:58 PM,88.7,36.1,16,29.76,10.0,SSW,11.5,-,N/A,,Clear,200,2013-06-17 06:58:00